Regional Weather Roundup
Issued by NWS

Home | Current Version | Previous Version | Text Only | Print | Product List | Glossary On
Versions: 1 2 3 4 5 6 7 8 9 10 11 12 13 14 15 16 17 18 19 20 21 22 23 24 25 26 27 28 29 30 31 32 33 34 35 36 37 38 39 40 41 42 43 44 45 46 47 48 49 50
000
ASUS46 KLOX 240811
RWRCA

SOUTHERN CALIFORNIA WEATHER ROUNDUP
NATIONAL WEATHER SERVICE OXNARD CALIFORNIA
100 AM PDT SUN MAY 24 2015

NOTE: "FAIR" INDICATES FEW OR NO CLOUDS BELOW 12,000 FEET WITH NO
SIGNIFICANT WEATHER AND/OR OBSTRUCTIONS TO VISIBILITY.

  -  STATIONS PRECEEDED BY AN ASTERISK (*) ARE NOT NWS OR FAA
     STATIONS AND ARE NOT SUBJECT TO NWS AND FAA QUALITY CONTROL.

CAZ041-042-087-240900-
LA AND ORANGE COUNTY COASTAL AREAS


CITY           SKY/WX    TMP DP  RH WIND       PRES   REMARKS
L.A. DOWNTOWN  CLOUDY    61  49  64 CALM      30.01F
L.A. AIRPORT   MOCLDY    58  53  84 W8        30.02F
LONG BEACH     CLOUDY    62  50  64 W5        30.00F

CITY           SKY/WX    TMP DP  RH WIND       PRES   REMARKS
AVALON           N/A     59 N/A N/A MISG        N/A
FULLERTON      CLOUDY    63  52  67 CALM      30.00F
HAWTHORNE      CLOUDY    61  52  72 NW5       30.02F
*LOS ALAMITOS  CLOUDY    61  55  80 SW6       30.00F
*REDONDO BEACH   N/A     59  53  79 CALM      30.01F
SANTA ANA      CLOUDY    61  52  72 SW3       30.01F
STA MONICA APT CLOUDY    60  51  72 CALM      30.01F
*STA MON PIER    N/A     58  54  86 CALM      30.01F
*UCLA            N/A     59  50  72 CALM      29.98F

$$

CAZ547-548-048-240900-
LA COUNTY VALLEYS AND INLAND EMPIRE


CITY           SKY/WX    TMP DP  RH WIND       PRES   REMARKS
BURBANK        PTCLDY    58  49  72 S3        30.00F
VAN NUYS       PTCLDY    58  49  72 CALM      30.00F

CITY           SKY/WX    TMP DP  RH WIND       PRES   REMARKS
CORONA AIRPORT CLOUDY    58  52  80 CALM      30.00F
CHINO          CLOUDY    60  53  77 W7        30.01F
MARCH AFB      CLOUDY    57  52  84 CALM      30.00F
*NORTHRIDGE      N/A     55  46  71 CALM        N/A
ONTARIO        CLOUDY    58  51  78 W7        30.00F
*PASADENA        N/A     59  54  82 CALM        N/A
RIVERSIDE      CLOUDY    60  52  74 N3        30.00F
SAN BERNARDINO NOT AVBL
*WHITEMAN AP   NOT AVBL
*WOODLAND HILL   N/A     52  46  82 S1          N/A

$$

CAZ054-055-240900-
LA AND SAN BERNARDINO COUNTY MOUNTAINS


CITY           SKY/WX    TMP DP  RH WIND       PRES   REMARKS
*BIG BEAR AIRP SUNNY     37  32  81 SW3       30.08F
SANDBERG       LGT RAIN  49  44  83 NW23      30.06R

$$

CAZ028-029-059-060-099-240900-
ANTELOPE VALLEY AND SURROUNDING AREAS


CITY           SKY/WX    TMP DP  RH WIND       PRES   REMARKS
LANCASTER      CLEAR     55  44  66 W21       29.96F
PALMDALE       CLEAR     56  45  66 SW15      29.97S

CITY           SKY/WX    TMP DP  RH WIND       PRES   REMARKS
29 PALMS       CLEAR     66  43  43 NW9       29.97F
BARSTOW/DAGGET CLEAR     64  44  48 SW17G26   29.92S
BISHOP         CLOUDY    52  49  89 SW3       30.06S
CHINA LAKE     MOCLDY    63  43  48 NW18G28   29.91R
EDWARDS AFB    CLEAR     56  45  66 SW15      29.93F
MOJAVE         FAIR      59  43  55 E7        29.95R
NEEDLES        CLOUDY    76  42  29 SW9       29.85S
VICTORVILLE    CLEAR     54  45  71 S8        29.98S

$$

CAZ039-040-240900-
VENTURA AND SANTA BARBARA COUNTY COAST


CITY           SKY/WX    TMP DP  RH WIND       PRES   REMARKS
CAMARILLO      CLEAR     58  50  75 E3        30.00F
OXNARD AIRPORT CLEAR     57  50  77 E6        30.00F
*POINT MUGU    CLEAR     57  52  83 CALM      30.01F
SBA APT/GOLETA CLEAR     54  47  77 CALM      30.00F
*SANTA BARBARA   N/A     59  51  74 CALM      30.08S
*VENTURA         N/A     56  50  79 CALM      29.62S

$$

CAZ044-045-240900-
VENTURA COUNTY VALLEYS


CITY           SKY/WX    TMP DP  RH WIND       PRES   REMARKS
*SIMI VALLEY     N/A     55  50  82 NE3       29.96F
*OJAI            N/A     49  46  87 CALM      29.95F
*FILLMORE        N/A     56  49  78 CALM      29.90F

$$

CAZ053-240900-
VENTURA COUNTY MOUNTAINS


CITY           SKY/WX    TMP DP  RH WIND       PRES   REMARKS

$$

CAZ034-035-036-240900-
CENTRAL COAST AND SANTA YNEZ VALLEY


CITY           SKY/WX    TMP DP  RH WIND       PRES   REMARKS
SAN LUIS OBISP PTCLDY    54  47  77 CALM      30.04F
SANTA MARIA    CLOUDY    56  49  77 W9        30.06F

CITY           SKY/WX    TMP DP  RH WIND       PRES   REMARKS
*CAL POLY SLO    N/A     54  50  87 CALM        N/A
*PISMO BEACH     N/A     56  50  81 E1        30.05F
*SANTA YNEZ    CLOUDY    54  45  71 W6        30.05F

$$

CAZ037-038-051-240900-
SAN LUIS OBISPO COUNTY INTERIOR AND CUYAMA VALLEY


CITY           SKY/WX    TMP DP  RH WIND       PRES   REMARKS
*CUYAMA          N/A     47  44  86 W2        30.00S
PASO ROBLES    CLOUDY    52  46  80 NW14G21   30.03F

$$

CAZ032-033-061-240900-
SOUTHERN DESERTS


CITY           SKY/WX    TMP DP  RH WIND       PRES   REMARKS
BLYTHE         CLEAR     68  50  52 S10       29.87F
IMPERIAL       CLEAR     65  47  52 W10       29.88F
PALM SPRINGS   CLEAR     69  49  48 NW14      29.87F
THERMAL        CLEAR     69  50  50 NW16      29.85S

$$

ELSEWHERE ACROSS THE WESTERN UNITED STATES AND MEXICO


CITY           SKY/WX    TMP DP  RH WIND       PRES   REMARKS
DENVER, CO     PTCLDY    43  40  89 W6        29.95F
GRAND CANYON,  LGT RAIN  45  39  79 SW7       30.05S
HONOLULU, HI   PTCLDY    73  57  56 NE5       30.10R
KAHULUI, MAUI  CLOUDY    72  64  78 E8        30.10S
LAKE TAHOE, CA CLOUDY    45  40  82 S3        30.12S
LAS VEGAS, NV  CLOUDY    73  41  31 SW14      29.81S
MAMMOTH LAKES, CLOUDY    41  39  93 NW8       30.14F
MEXICO CITY, M CLEAR     63  50  63 CALM      30.31F
PHOENIX, AZ    CLEAR     75  38  26 W3        29.88F
PORTLAND, OR   CLOUDY    56  50  80 N3        30.19F
RENO, NV       CLOUDY    53  49  86 CALM      30.09S
SALT LAKE CITY MOCLDY    50  43  77 SE6       29.96S
SAN DIEGO, CA  MOCLDY    63  50  62 W7        30.03F
SAN FRANCISCO, CLOUDY    54  48  80 W8        30.06S
SAN JOSE, CA   CLEAR     55  47  74 NW5       30.05F
SEATTLE, WA    CLOUDY    55  49  80 SW6       30.18S
TIJUANA, MEX   MOCLDY    59  50  72 W5        30.05F

$$

STATION/POSITION TIME  TEMP    WIND        PRES    VSBY  WAVE
                       AIR SEA DIR/SP/G                  HT/PER
                 (UTC) (F)     (DEG/KT/KT) (MB)    (MI)  (FT/S)
POINT ARGUELLO B NOT AVBL
WEST SANTA BARBA 0750   56 56  340/ 16/ 19 1016.9F         7/ 9
POINT CONCEPTION NOT AVBL
EAST SANTA BARBA 0700   58 57  290/ 14/ 17 1016.8F
SANTA MONICA BAY 0750   59 63  330/  8/ 10 1016.2F         5/ 7


USA.gov is the U.S. government's official web portal to all federal, state and local government web resources and services.